This is the latest recevied weather packets stored in our database for station/object K0APR. If no packets are shown the sender has not sent any weather packets the latest 10 day(s).
| Time | Temp. | Humidity | Pressure | Rain* | Wind** | Luminosity | Snow |
|---|---|---|---|---|---|---|---|
| 1787976616 | 23.33° C | 79% | 1013 hPa | 0 mm | - | 0 W/m² | - |
| 1787976312 | 23.89° C | 79% | 1013 hPa | 0 mm | - | 0 W/m² | - |
| 1787976011 | 23.89° C | 78% | 1013.3 hPa | 0 mm | - | 0 W/m² | - |
| 1787975709 | 23.89° C | 77% | 1013.3 hPa | 0 mm | - | 0 W/m² | - |
| 1787975409 | 23.89° C | 77% | 1013.7 hPa | 0 mm | - | 0 W/m² | - |
| 1787975108 | 23.89° C | 76% | 1014 hPa | 0 mm | - | 0 W/m² | - |
| 1787974807 | 23.89° C | 76% | 1014.4 hPa | 0 mm | - | 0 W/m² | - |
| 1787974506 | 24.44° C | 75% | 1014.7 hPa | 0 mm | - | 0 W/m² | - |
| 1787974201 | 23.89° C | 75% | 1014.7 hPa | 0 mm | - | 0 W/m² | - |
| 1787973895 | 23.89° C | 76% | 1014.7 hPa | 0 mm | - | 0 W/m² | - |
| 1787973590 | 23.33° C | 78% | 1014.4 hPa | 0 mm | - | 0 W/m² | - |
| 1787973286 | 23.33° C | 78% | 1014 hPa | 0 mm | - | 0 W/m² | - |
| 1787972984 | 23.33° C | 79% | 1014 hPa | 0 mm | - | 0 W/m² | - |
| 1787972681 | 22.78° C | 80% | 1014.4 hPa | 0 mm | - | 0 W/m² | - |
| 1787972379 | 22.78° C | 80% | 1014 hPa | 0 mm | - | 0 W/m² | - |
| 1787972074 | 23.33° C | 79% | 1014 hPa | 0 mm | - | 0 W/m² | - |
| 1787971769 | 23.33° C | 78% | 1014 hPa | 0 mm | - | 0 W/m² | - |
| 1787971465 | 22.78° C | 79% | 1014.4 hPa | 0 mm | - | 0 W/m² | - |
| 1787971161 | 22.78° C | 79% | 1014 hPa | 0 mm | - | 0 W/m² | - |
| 1787970862 | 22.78° C | 79% | 1014 hPa | 0 mm | - | 0 W/m² | - |
| 1787970559 | 22.78° C | 78% | 1013.7 hPa | 0 mm | - | 0 W/m² | - |
| 1787970255 | 23.33° C | 78% | 1014 hPa | 0 mm | - | 0 W/m² | - |
| 1787969953 | 23.33° C | 78% | 1013.7 hPa | 0 mm | - | 0 W/m² | - |
| 1787969652 | 23.33° C | 78% | 1013.7 hPa | 0 mm | - | 0 W/m² | - |
| 1787969347 | 23.33° C | 77% | 1013.7 hPa | 0 mm | - | 0 W/m² | - |
* Rain latest hour (hover to see other rain measurements)
** Current wind speed in m/s (hover to see current wind gust speed)